Date,TemperatureHighF,TemperatureAvgF,TemperatureLowF,DewpointHighF,DewpointAvgF,DewpointLowF,HumidityHigh,HumidityAvg,HumidityLow,PressureMaxIn,PressureMinIn,WindSpeedMaxMPH,WindSpeedAvgMPH,GustSpeedMaxMPH,PrecipitationSumIn
2013-9-1,90.0,76.3,65.3,76.1,67.3,58.8,94,75,54,30.17,30.03,0,0,0,0.00
2013-9-2,80.1,69.5,58.0,64.9,58.7,51.8,88,70,52,30.32,30.17,0,0,0,0.00
2013-9-3,77.8,65.4,52.2,61.4,55.4,48.7,89,72,52,30.41,30.31,0,0,0,0.00
2013-9-4,83.5,70.9,55.6,65.6,60.5,52.9,92,72,51,30.46,30.35,0,0,0,0.00
2013-9-5,83.9,73.6,64.8,70.4,64.3,58.5,85,73,61,30.52,30.41,0,0,0,0.00
2013-9-6,86.0,72.9,56.9,67.2,59.9,50.9,81,65,47,30.51,30.29,0,0,0,0.00
2013-9-7,90.4,78.7,67.3,71.1,66.3,60.7,80,67,52,30.30,30.16,0,0,0,0.00
2013-9-8,85.0,76.4,70.4,71.7,68.4,65.4,87,77,64,30.30,30.18,0,0,0,0.00
2013-9-9,95.4,81.8,68.0,76.2,69.8,63.8,93,69,46,30.22,30.10,0,0,0,0.00
2013-9-10,94.5,84.8,74.0,69.8,64.4,61.9,68,52,36,30.30,30.17,0,0,0,0.00
2013-9-11,92.5,79.9,69.5,73.2,67.0,63.3,86,65,50,30.37,30.28,0,0,0,0.00
2013-9-12,80.3,70.6,59.0,65.1,56.9,47.9,87,64,42,30.43,30.31,0,0,0,0.00
2013-9-13,67.7,60.4,51.1,48.6,44.7,37.9,78,58,35,30.54,30.42,0,0,0,0.00
2013-9-14,72.0,65.7,53.5,50.8,46.8,43.8,73,51,40,30.49,30.29,0,0,0,0.00
2013-9-15,62.6,57.9,53.3,60.7,52.9,43.7,94,84,56,30.51,30.25,0,0,0,0.29
2013-9-16,66.2,57.5,51.5,53.8,50.3,46.4,94,78,54,30.69,30.50,0,0,0,0.00
2013-9-17,71.1,59.7,45.9,58.6,52.2,42.8,91,77,61,30.63,30.36,0,0,0,0.00
2013-9-18,79.6,70.3,60.5,71.6,63.9,54.5,93,80,72,30.37,30.14,0,0,0,0.09
2013-9-19,90.4,78.0,67.0,73.7,68.6,63.9,92,75,53,30.20,30.01,0,0,0,0.02
2013-9-20,70.2,65.6,57.6,64.8,60.3,52.7,94,83,67,30.19,30.09,0,0,0,0.00
2013-9-21,68.2,58.8,49.3,56.5,51.2,46.5,91,77,61,30.25,30.17,0,0,0,0.00
2013-9-22,68.4,57.4,45.0,52.9,47.6,42.3,90,71,49,30.35,30.25,0,0,0,0.00
2013-9-23,71.8,59.1,46.3,54.1,48.6,42.9,89,70,48,30.37,30.25,0,0,0,0.00
2013-9-24,72.9,60.0,46.4,55.3,50.0,43.1,89,71,51,30.29,30.17,0,0,0,0.00
2013-9-25,74.7,62.3,50.4,55.6,51.5,46.9,90,70,49,30.26,30.18,0,0,0,0.00
2013-9-26,79.6,65.0,50.4,61.5,53.7,46.6,91,69,51,30.33,30.24,0,0,0,0.00
2013-9-27,81.4,67.4,53.3,60.6,51.6,46.3,81,59,35,30.40,30.29,0,0,0,0.00
2013-9-28,80.6,65.8,54.9,65.5,57.5,49.2,90,76,55,30.31,30.17,0,0,0,0.00
2013-9-29,68.6,57.7,46.8,56.5,48.6,42.4,93,74,47,30.39,30.27,0,0,0,0.00
2013-9-30,74.3,60.9,45.4,55.4,48.2,39.9,84,65,44,30.29,30.12,0,0,0,0.00